Time,TemperatureF,DewpointF,PressureIn,WindDirection,WindDirectionDegrees,WindSpeedMPH,WindSpeedGustMPH,Humidity,HourlyPrecipIn,Conditions,Clouds,dailyrainin,SoftwareType,DateUTC
2013-04-29 00:01:00,52.0,50.9,29.93,NW,309,0.0,2.0,96,0.00,,,0.00,VWS V14.01,2013-04-29 04:01:00,
2013-04-29 00:02:00,52.0,50.9,29.93,NW,309,0.0,2.0,96,0.00,,,0.00,VWS V14.01,2013-04-29 04:02:00,
2013-04-29 00:03:00,52.0,50.9,29.93,NW,309,0.0,2.0,96,0.00,,,0.00,VWS V14.01,2013-04-29 04:03:00,
2013-04-29 00:05:00,52.0,50.9,29.93,NW,309,0.0,2.0,96,0.00,,,0.00,VWS V14.01,2013-04-29 04:05:00,
2013-04-29 00:10:00,52.0,50.9,29.93,NW,309,0.0,2.0,96,0.00,,,0.00,VWS V14.01,2013-04-29 04:10:00,
2013-04-29 00:15:00,52.0,50.9,29.94,NW,309,0.0,2.0,96,0.00,,,0.00,VWS V14.01,2013-04-29 04:15:00,
2013-04-29 00:20:00,52.0,50.9,29.94,NW,309,0.0,2.0,96,0.00,,,0.00,VWS V14.01,2013-04-29 04:20:00,
2013-04-29 00:25:00,51.9,50.8,29.94,NW,309,0.0,2.0,96,0.00,,,0.00,VWS V14.01,2013-04-29 04:25:00,
2013-04-29 00:31:00,51.9,50.8,29.94,NW,309,0.0,2.0,96,0.00,,,0.00,VWS V14.01,2013-04-29 04:31:00,
2013-04-29 00:36:00,51.9,50.8,29.94,NW,309,0.0,2.0,96,0.00,,,0.00,VWS V14.01,2013-04-29 04:36:00,
2013-04-29 00:41:00,51.9,50.8,29.94,NW,309,0.0,2.0,96,0.00,,,0.00,VWS V14.01,2013-04-29 04:41:00,
2013-04-29 00:46:00,51.7,50.6,29.94,NW,309,0.0,2.0,96,0.00,,,0.00,VWS V14.01,2013-04-29 04:46:00,
2013-04-29 00:51:00,51.7,50.6,29.94,NW,309,0.0,2.0,96,0.00,,,0.00,VWS V14.01,2013-04-29 04:51:00,
2013-04-29 00:56:00,51.7,50.6,29.94,NW,309,0.0,2.0,96,0.00,,,0.00,VWS V14.01,2013-04-29 04:56:00,
2013-04-29 01:01:00,51.7,50.6,29.94,NW,309,0.0,2.0,96,0.00,,,0.00,VWS V14.01,2013-04-29 05:01:00,
2013-04-29 01:06:00,51.7,50.6,29.94,NW,309,0.0,2.0,96,0.00,,,0.00,VWS V14.01,2013-04-29 05:06:00,
2013-04-29 01:11:00,51.7,50.6,29.94,NW,309,0.0,2.0,96,0.00,,,0.00,VWS V14.01,2013-04-29 05:11:00,
2013-04-29 01:16:00,51.7,50.6,29.93,NW,309,0.0,2.0,96,0.00,,,0.00,VWS V14.01,2013-04-29 05:16:00,
2013-04-29 01:21:00,51.7,50.6,29.93,NW,309,0.0,2.0,96,0.00,,,0.00,VWS V14.01,2013-04-29 05:21:00,
2013-04-29 01:26:00,51.9,50.8,29.93,NW,309,0.0,2.0,96,0.00,,,0.00,VWS V14.01,2013-04-29 05:26:00,
2013-04-29 01:31:00,51.9,50.8,29.93,NW,309,0.0,2.0,96,0.00,,,0.00,VWS V14.01,2013-04-29 05:31:00,
2013-04-29 01:36:00,51.9,50.8,29.93,NW,309,0.0,2.0,96,0.00,,,0.00,VWS V14.01,2013-04-29 05:36:00,
2013-04-29 01:41:00,51.9,50.8,29.93,NW,309,0.0,2.0,96,0.00,,,0.00,VWS V14.01,2013-04-29 05:41:00,
2013-04-29 01:46:00,52.0,50.9,29.93,NW,309,0.0,2.0,96,0.00,,,0.00,VWS V14.01,2013-04-29 05:46:00,
2013-04-29 01:51:00,52.2,51.1,29.93,NW,309,0.0,2.0,96,0.00,,,0.00,VWS V14.01,2013-04-29 05:51:00,
2013-04-29 01:56:00,52.2,51.1,29.93,NW,309,0.0,2.0,96,0.00,,,0.00,VWS V14.01,2013-04-29 05:56:00,
2013-04-29 02:02:00,52.2,51.1,29.93,NW,309,0.0,2.0,96,0.00,,,0.00,VWS V14.01,2013-04-29 06:02:00,
2013-04-29 02:07:00,52.2,51.1,29.93,NW,309,0.0,2.0,96,0.00,,,0.00,VWS V14.01,2013-04-29 06:07:00,
2013-04-29 02:12:00,52.2,51.1,29.93,NW,309,0.0,2.0,96,0.00,,,0.00,VWS V14.01,2013-04-29 06:12:00,
2013-04-29 02:17:00,52.2,51.1,29.92,NW,309,0.0,2.0,96,0.00,,,0.00,VWS V14.01,2013-04-29 06:17:00,
2013-04-29 02:22:00,52.2,51.1,29.92,NW,309,0.0,2.0,96,0.00,,,0.00,VWS V14.01,2013-04-29 06:22:00,
2013-04-29 02:27:00,52.0,50.9,29.92,NW,309,0.0,2.0,96,0.00,,,0.00,VWS V14.01,2013-04-29 06:27:00,
2013-04-29 02:32:00,51.9,50.8,29.91,NW,309,0.0,2.0,96,0.00,,,0.00,VWS V14.01,2013-04-29 06:32:00,
2013-04-29 02:37:00,51.9,50.8,29.91,NW,309,0.0,2.0,96,0.00,,,0.00,VWS V14.01,2013-04-29 06:37:00,
2013-04-29 02:42:00,52.0,50.9,29.91,NW,309,0.0,2.0,96,0.00,,,0.00,VWS V14.01,2013-04-29 06:42:00,
2013-04-29 02:47:00,51.9,50.5,29.91,NW,309,0.0,2.0,95,0.00,,,0.00,VWS V14.01,2013-04-29 06:47:00,
2013-04-29 02:52:00,51.7,50.6,29.91,NW,309,0.0,2.0,96,0.00,,,0.00,VWS V14.01,2013-04-29 06:52:00,
2013-04-29 02:57:00,51.7,50.6,29.91,NW,309,0.0,2.0,96,0.00,,,0.00,VWS V14.01,2013-04-29 06:57:00,
2013-04-29 03:02:00,51.7,50.6,29.91,NW,309,0.0,2.0,96,0.00,,,0.00,VWS V14.01,2013-04-29 07:02:00,
2013-04-29 03:07:00,51.6,50.5,29.91,NW,309,0.0,2.0,96,0.00,,,0.00,VWS V14.01,2013-04-29 07:07:00,
2013-04-29 03:12:00,51.6,50.5,29.91,NW,309,0.0,2.0,96,0.00,,,0.00,VWS V14.01,2013-04-29 07:12:00,
2013-04-29 03:17:00,51.6,50.5,29.91,NW,309,0.0,2.0,96,0.00,,,0.00,VWS V14.01,2013-04-29 07:17:00,
2013-04-29 03:22:00,51.6,50.5,29.91,NW,309,0.0,2.0,96,0.00,,,0.00,VWS V14.01,2013-04-29 07:22:00,
2013-04-29 03:27:00,51.6,50.5,29.91,NW,309,0.0,2.0,96,0.00,,,0.00,VWS V14.01,2013-04-29 07:27:00,
2013-04-29 03:32:00,51.6,50.5,29.91,NW,309,0.0,2.0,96,0.00,,,0.00,VWS V14.01,2013-04-29 07:32:00,
2013-04-29 03:37:00,51.6,50.5,29.91,NW,309,0.0,2.0,96,0.00,,,0.00,VWS V14.01,2013-04-29 07:37:00,
2013-04-29 03:42:00,51.4,50.3,29.91,NW,309,0.0,2.0,96,0.00,,,0.00,VWS V14.01,2013-04-29 07:42:00,
2013-04-29 03:47:00,51.4,50.3,29.91,NW,309,0.0,2.0,96,0.00,,,0.00,VWS V14.01,2013-04-29 07:47:00,
2013-04-29 03:52:00,51.4,50.3,29.91,NW,309,0.0,2.0,96,0.00,,,0.00,VWS V14.01,2013-04-29 07:52:00,
2013-04-29 03:58:00,51.4,50.3,29.91,NW,309,0.0,2.0,96,0.00,,,0.00,VWS V14.01,2013-04-29 07:58:00,
2013-04-29 04:03:00,51.4,50.3,29.91,NW,309,0.0,2.0,96,0.00,,,0.00,VWS V14.01,2013-04-29 08:03:00,
2013-04-29 04:08:00,51.4,50.3,29.91,NW,309,0.0,2.0,96,0.00,,,0.00,VWS V14.01,2013-04-29 08:08:00,
2013-04-29 04:13:00,51.6,50.5,29.91,NW,309,0.0,2.0,96,0.00,,,0.00,VWS V14.01,2013-04-29 08:13:00,
2013-04-29 04:18:00,51.7,50.6,29.91,NW,309,0.0,2.0,96,0.00,,,0.00,VWS V14.01,2013-04-29 08:18:00,
2013-04-29 04:23:00,51.7,50.6,29.91,NW,309,0.0,2.0,96,0.00,,,0.00,VWS V14.01,2013-04-29 08:23:00,
2013-04-29 04:28:00,51.7,50.6,29.91,NW,309,0.0,2.0,96,0.00,,,0.00,VWS V14.01,2013-04-29 08:28:00,
2013-04-29 04:33:00,51.7,50.6,29.91,NW,309,0.0,2.0,96,0.00,,,0.00,VWS V14.01,2013-04-29 08:33:00,
2013-04-29 04:38:00,51.9,50.8,29.91,NW,309,0.0,2.0,96,0.00,,,0.00,VWS V14.01,2013-04-29 08:38:00,
2013-04-29 04:43:00,51.9,50.8,29.91,NW,309,0.0,2.0,96,0.00,,,0.00,VWS V14.01,2013-04-29 08:43:00,
2013-04-29 04:48:00,51.9,50.8,29.91,NW,309,0.0,2.0,96,0.00,,,0.00,VWS V14.01,2013-04-29 08:48:00,
2013-04-29 04:53:00,51.9,50.8,29.91,NW,309,0.0,2.0,96,0.00,,,0.00,VWS V14.01,2013-04-29 08:53:00,
2013-04-29 04:58:00,51.9,50.8,29.91,NW,309,0.0,2.0,96,0.00,,,0.00,VWS V14.01,2013-04-29 08:58:00,
2013-04-29 05:03:00,51.7,50.6,29.91,NW,309,0.0,2.0,96,0.00,,,0.00,VWS V14.01,2013-04-29 09:03:00,
2013-04-29 05:08:00,51.6,50.5,29.91,NW,309,0.0,2.0,96,0.00,,,0.00,VWS V14.01,2013-04-29 09:08:00,
2013-04-29 05:13:00,51.4,50.3,29.91,NW,309,0.0,2.0,96,0.00,,,0.00,VWS V14.01,2013-04-29 09:13:00,
2013-04-29 05:18:00,51.3,50.2,29.91,NW,309,0.0,2.0,96,0.00,,,0.00,VWS V14.01,2013-04-29 09:18:00,
2013-04-29 05:23:00,51.3,50.2,29.91,NW,309,0.0,2.0,96,0.00,,,0.00,VWS V14.01,2013-04-29 09:23:00,
2013-04-29 05:28:00,51.1,50.0,29.91,NW,309,0.0,2.0,96,0.00,,,0.00,VWS V14.01,2013-04-29 09:28:00,
2013-04-29 05:33:00,51.0,49.9,29.90,NW,309,0.0,2.0,96,0.00,,,0.00,VWS V14.01,2013-04-29 09:33:00,
2013-04-29 05:38:00,51.0,49.9,29.90,NW,309,0.0,2.0,96,0.00,,,0.00,VWS V14.01,2013-04-29 09:38:00,
2013-04-29 05:43:00,51.0,49.9,29.90,NW,309,0.0,2.0,96,0.00,,,0.00,VWS V14.01,2013-04-29 09:43:00,
2013-04-29 05:49:00,50.8,49.7,29.91,NW,309,0.0,2.0,96,0.00,,,0.00,VWS V14.01,2013-04-29 09:49:00,
2013-04-29 05:54:00,50.7,49.6,29.91,NW,309,0.0,2.0,96,0.00,,,0.00,VWS V14.01,2013-04-29 09:54:00,
2013-04-29 05:59:00,50.4,49.3,29.91,NW,309,0.0,2.0,96,0.00,,,0.00,VWS V14.01,2013-04-29 09:59:00,
2013-04-29 06:04:00,50.4,49.3,29.91,NW,309,0.0,2.0,96,0.00,,,0.00,VWS V14.01,2013-04-29 10:04:00,
2013-04-29 06:09:00,50.2,49.1,29.91,NW,309,0.0,2.0,96,0.00,,,0.00,VWS V14.01,2013-04-29 10:09:00,
2013-04-29 06:14:00,50.1,49.0,29.92,NW,309,0.0,2.0,96,0.00,,,0.00,VWS V14.01,2013-04-29 10:14:00,
2013-04-29 06:19:00,50.1,49.0,29.92,NW,309,0.0,2.0,96,0.00,,,0.00,VWS V14.01,2013-04-29 10:19:00,
2013-04-29 06:24:00,49.9,48.8,29.92,NW,309,0.0,2.0,96,0.00,,,0.00,VWS V14.01,2013-04-29 10:24:00,
2013-04-29 06:29:00,49.6,48.5,29.92,NW,309,0.0,2.0,96,0.00,,,0.00,VWS V14.01,2013-04-29 10:29:00,
2013-04-29 06:34:00,49.5,48.4,29.92,NW,309,0.0,2.0,96,0.00,,,0.00,VWS V14.01,2013-04-29 10:34:00,
2013-04-29 06:39:00,49.4,48.3,29.92,NW,309,0.0,2.0,96,0.00,,,0.00,VWS V14.01,2013-04-29 10:39:00,
2013-04-29 06:44:00,49.2,48.1,29.93,NW,309,0.0,2.0,96,0.00,,,0.00,VWS V14.01,2013-04-29 10:44:00,
2013-04-29 06:49:00,49.1,48.0,29.93,NW,309,0.0,2.0,96,0.00,,,0.00,VWS V14.01,2013-04-29 10:49:00,
2013-04-29 06:54:00,48.9,47.8,29.93,NW,309,0.0,2.0,96,0.00,,,0.00,VWS V14.01,2013-04-29 10:54:00,
2013-04-29 06:59:00,48.9,47.8,29.93,NW,309,0.0,2.0,96,0.00,,,0.00,VWS V14.01,2013-04-29 10:59:00,
2013-04-29 07:04:00,48.9,47.8,29.93,NW,309,0.0,2.0,96,0.00,,,0.00,VWS V14.01,2013-04-29 11:04:00,
2013-04-29 07:09:00,48.9,47.8,29.93,NW,309,0.0,2.0,96,0.00,,,0.00,VWS V14.01,2013-04-29 11:09:00,
2013-04-29 07:14:00,49.1,48.0,29.95,NW,309,0.0,2.0,96,0.00,,,0.00,VWS V14.01,2013-04-29 11:14:00,
2013-04-29 07:19:00,49.1,48.0,29.95,NW,309,0.0,2.0,96,0.00,,,0.00,VWS V14.01,2013-04-29 11:19:00,
2013-04-29 07:24:00,49.2,48.1,29.95,NW,309,0.0,2.0,96,0.00,,,0.00,VWS V14.01,2013-04-29 11:24:00,
2013-04-29 07:29:00,49.4,48.3,29.95,NW,309,0.0,2.0,96,0.00,,,0.00,VWS V14.01,2013-04-29 11:29:00,
2013-04-29 07:35:00,49.5,48.4,29.95,NW,309,0.0,2.0,96,0.00,,,0.00,VWS V14.01,2013-04-29 11:35:00,
2013-04-29 07:40:00,49.8,48.7,29.95,NW,309,0.0,2.0,96,0.00,,,0.00,VWS V14.01,2013-04-29 11:40:00,
2013-04-29 07:45:00,49.9,48.8,29.95,NW,309,0.0,2.0,96,0.00,,,0.00,VWS V14.01,2013-04-29 11:45:00,
2013-04-29 07:50:00,50.1,49.0,29.95,NW,309,0.0,2.0,96,0.00,,,0.00,VWS V14.01,2013-04-29 11:50:00,
2013-04-29 07:55:00,50.4,49.3,29.95,NW,309,0.0,2.0,96,0.00,,,0.00,VWS V14.01,2013-04-29 11:55:00,
2013-04-29 08:00:00,50.5,49.7,29.95,NW,309,0.0,2.0,97,0.00,,,0.00,VWS V14.01,2013-04-29 12:00:00,
2013-04-29 08:05:00,51.0,50.2,29.95,NW,309,0.0,2.0,97,0.00,,,0.00,VWS V14.01,2013-04-29 12:05:00,
2013-04-29 08:10:00,51.6,50.8,29.95,NW,309,0.0,2.0,97,0.00,,,0.00,VWS V14.01,2013-04-29 12:10:00,
2013-04-29 08:15:00,52.0,51.2,29.94,NW,309,0.0,2.0,97,0.00,,,0.00,VWS V14.01,2013-04-29 12:15:00,
2013-04-29 08:20:00,52.2,51.4,29.94,NW,309,0.0,2.0,97,0.00,,,0.00,VWS V14.01,2013-04-29 12:20:00,
2013-04-29 08:25:00,52.5,51.7,29.94,NW,309,0.0,2.0,97,0.00,,,0.00,VWS V14.01,2013-04-29 12:25:00,
2013-04-29 08:30:00,52.9,52.1,29.95,NW,309,0.0,2.0,97,0.00,,,0.00,VWS V14.01,2013-04-29 12:30:00,
2013-04-29 08:35:00,53.1,52.3,29.95,NW,309,0.0,2.0,97,0.00,,,0.00,VWS V14.01,2013-04-29 12:35:00,
2013-04-29 08:40:00,53.2,52.4,29.95,NW,309,0.0,2.0,97,0.00,,,0.00,VWS V14.01,2013-04-29 12:40:00,
2013-04-29 08:45:00,53.6,52.8,29.94,NW,309,0.0,2.0,97,0.00,,,0.00,VWS V14.01,2013-04-29 12:45:00,
2013-04-29 08:50:00,54.1,53.3,29.94,NW,309,0.0,2.0,97,0.00,,,0.00,VWS V14.01,2013-04-29 12:50:00,
2013-04-29 08:56:00,54.2,53.4,29.94,NW,309,0.0,2.0,97,0.00,,,0.00,VWS V14.01,2013-04-29 12:56:00,
2013-04-29 09:01:00,54.7,53.6,29.95,NW,309,0.0,2.0,96,0.00,,,0.00,VWS V14.01,2013-04-29 13:01:00,
2013-04-29 09:06:00,55.1,54.0,29.95,NW,309,0.0,2.0,96,0.00,,,0.00,VWS V14.01,2013-04-29 13:06:00,
2013-04-29 09:11:00,55.0,53.6,29.95,NW,309,0.0,2.0,95,0.00,,,0.00,VWS V14.01,2013-04-29 13:11:00,
2013-04-29 09:16:00,55.0,53.3,29.95,NW,309,0.0,2.0,94,0.00,,,0.00,VWS V14.01,2013-04-29 13:16:00,
2013-04-29 09:21:00,55.3,53.6,29.95,NW,309,0.0,2.0,94,0.00,,,0.00,VWS V14.01,2013-04-29 13:21:00,
2013-04-29 09:26:00,55.7,53.7,29.95,NW,309,0.0,2.0,93,0.00,,,0.00,VWS V14.01,2013-04-29 13:26:00,
2013-04-29 09:31:00,55.9,53.3,29.95,NW,309,0.0,2.0,91,0.00,,,0.00,VWS V14.01,2013-04-29 13:31:00,
2013-04-29 09:36:00,56.2,53.3,29.95,NW,309,0.0,2.0,90,0.00,,,0.00,VWS V14.01,2013-04-29 13:36:00,
2013-04-29 09:41:00,56.3,53.1,29.95,NW,309,0.0,2.0,89,0.00,,,0.00,VWS V14.01,2013-04-29 13:41:00,
2013-04-29 09:46:00,56.7,53.5,29.95,NW,309,0.0,2.0,89,0.00,,,0.00,VWS V14.01,2013-04-29 13:46:00,
2013-04-29 09:51:00,56.9,53.1,29.95,WSW,248,0.0,2.0,87,0.00,,,0.00,VWS V14.01,2013-04-29 13:51:00,
2013-04-29 09:56:00,57.2,52.7,29.95,WSW,248,0.0,2.0,85,0.00,,,0.00,VWS V14.01,2013-04-29 13:56:00,
2013-04-29 10:01:00,57.6,53.1,29.95,NW,316,3.0,3.0,85,0.00,,,0.00,VWS V14.01,2013-04-29 14:01:00,
2013-04-29 10:06:00,57.6,52.2,29.95,West,261,2.0,2.0,82,0.00,,,0.00,VWS V14.01,2013-04-29 14:06:00,
2013-04-29 10:11:00,57.8,53.0,29.95,West,259,0.0,2.0,84,0.00,,,0.00,VWS V14.01,2013-04-29 14:11:00,
2013-04-29 10:17:00,57.8,52.7,29.95,West,259,0.0,2.0,83,0.00,,,0.00,VWS V14.01,2013-04-29 14:17:00,
2013-04-29 10:22:00,58.0,53.2,29.95,West,259,0.0,2.0,84,0.00,,,0.00,VWS V14.01,2013-04-29 14:22:00,
2013-04-29 10:27:00,58.0,53.2,29.95,WSW,250,1.0,2.0,84,0.00,,,0.00,VWS V14.01,2013-04-29 14:27:00,
2013-04-29 10:32:00,58.0,53.8,29.95,WSW,250,0.0,2.0,86,0.00,,,0.00,VWS V14.01,2013-04-29 14:32:00,
2013-04-29 10:37:00,57.8,54.0,29.95,WSW,250,0.0,2.0,87,0.00,,,0.00,VWS V14.01,2013-04-29 14:37:00,
2013-04-29 10:42:00,57.6,53.8,29.95,WSW,250,0.0,2.0,87,0.00,,,0.00,VWS V14.01,2013-04-29 14:42:00,
2013-04-29 10:47:00,57.6,53.8,29.95,WNW,300,1.0,2.0,87,0.00,,,0.00,VWS V14.01,2013-04-29 14:47:00,
2013-04-29 10:52:00,57.8,54.3,29.95,WNW,300,0.0,2.0,88,0.00,,,0.00,VWS V14.01,2013-04-29 14:52:00,
2013-04-29 10:57:00,58.0,53.8,29.95,SW,229,3.0,3.0,86,0.00,,,0.00,VWS V14.01,2013-04-29 14:57:00,
2013-04-29 11:02:00,58.0,54.2,29.96,WNW,302,1.0,2.0,87,0.00,,,0.00,VWS V14.01,2013-04-29 15:02:00,
2013-04-29 11:07:00,57.8,54.0,29.96,SW,227,2.0,2.0,87,0.00,,,0.00,VWS V14.01,2013-04-29 15:07:00,
2013-04-29 11:12:00,57.6,54.1,29.96,West,273,0.0,2.0,88,0.00,,,0.00,VWS V14.01,2013-04-29 15:12:00,
2013-04-29 11:17:00,58.0,54.5,29.97,West,269,2.0,2.0,88,0.00,,,0.00,VWS V14.01,2013-04-29 15:17:00,
2013-04-29 11:22:00,58.0,53.8,29.97,SW,233,1.0,2.0,86,0.00,,,0.00,VWS V14.01,2013-04-29 15:22:00,
2013-04-29 11:27:00,58.4,53.6,29.97,NNW,328,4.0,4.0,84,0.00,,,0.00,VWS V14.01,2013-04-29 15:27:00,
2013-04-29 11:32:00,58.9,53.8,29.97,West,264,5.0,5.0,83,0.00,,,0.00,VWS V14.01,2013-04-29 15:32:00,
2013-04-29 11:37:00,58.7,53.2,29.97,WSW,246,1.0,2.0,82,0.00,,,0.00,VWS V14.01,2013-04-29 15:37:00,
2013-04-29 11:43:00,59.0,53.5,29.97,SW,214,2.0,2.0,82,0.00,,,0.00,VWS V14.01,2013-04-29 15:43:00,
2013-04-29 11:48:00,59.5,53.7,29.96,WNW,300,1.0,2.0,81,0.00,,,0.00,VWS V14.01,2013-04-29 15:48:00,
2013-04-29 11:53:00,60.5,54.0,29.96,NW,309,0.0,2.0,79,0.00,,,0.00,VWS V14.01,2013-04-29 15:53:00,
2013-04-29 11:58:00,61.0,53.8,29.96,WNW,288,3.0,3.0,77,0.00,,,0.00,VWS V14.01,2013-04-29 15:58:00,
2013-04-29 12:03:00,61.3,53.7,29.96,NNW,328,0.0,2.0,76,0.00,,,0.00,VWS V14.01,2013-04-29 16:03:00,
2013-04-29 12:08:00,61.5,54.2,29.96,West,274,1.0,2.0,77,0.00,,,0.00,VWS V14.01,2013-04-29 16:08:00,
2013-04-29 12:13:00,61.2,52.9,29.96,SW,224,2.0,2.0,74,0.00,,,0.00,VWS V14.01,2013-04-29 16:13:00,
2013-04-29 12:18:00,61.0,53.0,29.96,WSW,239,2.0,2.0,75,0.00,,,0.00,VWS V14.01,2013-04-29 16:18:00,
2013-04-29 12:23:00,61.5,52.8,29.96,SW,232,2.0,2.0,73,0.00,,,0.00,VWS V14.01,2013-04-29 16:23:00,
2013-04-29 12:28:00,61.8,52.3,29.96,SW,234,2.0,2.0,71,0.00,,,0.00,VWS V14.01,2013-04-29 16:28:00,
2013-04-29 12:33:00,61.6,52.5,29.95,WSW,246,4.0,4.0,72,0.00,,,0.00,VWS V14.01,2013-04-29 16:33:00,
2013-04-29 12:38:00,62.0,52.9,29.95,WSW,240,2.0,2.0,72,0.00,,,0.00,VWS V14.01,2013-04-29 16:38:00,
2013-04-29 12:43:00,62.4,52.5,29.95,SW,224,2.0,2.0,70,0.00,,,0.00,VWS V14.01,2013-04-29 16:43:00,
2013-04-29 12:48:00,62.3,52.8,29.95,WSW,240,2.0,2.0,71,0.00,,,0.00,VWS V14.01,2013-04-29 16:48:00,
2013-04-29 12:54:00,61.8,52.7,29.95,WSW,246,1.0,2.0,72,0.00,,,0.00,VWS V14.01,2013-04-29 16:54:00,
2013-04-29 12:59:00,61.8,53.1,29.95,West,279,4.0,4.0,73,0.00,,,0.00,VWS V14.01,2013-04-29 16:59:00,
2013-04-29 13:04:00,61.8,52.7,29.94,SW,227,3.0,3.0,72,0.00,,,0.00,VWS V14.01,2013-04-29 17:04:00,
2013-04-29 13:09:00,62.3,53.2,29.94,WNW,292,3.0,3.0,72,0.00,,,0.00,VWS V14.01,2013-04-29 17:09:00,
2013-04-29 13:14:00,63.1,52.8,29.94,SW,231,2.0,2.0,69,0.00,,,0.00,VWS V14.01,2013-04-29 17:14:00,
2013-04-29 13:19:00,62.9,53.0,29.94,West,260,1.0,2.0,70,0.00,,,0.00,VWS V14.01,2013-04-29 17:19:00,
2013-04-29 13:24:00,63.4,53.5,29.94,NW,315,2.0,2.0,70,0.00,,,0.00,VWS V14.01,2013-04-29 17:24:00,
2013-04-29 13:29:00,63.4,53.5,29.94,WNW,286,3.0,3.0,70,0.00,,,0.00,VWS V14.01,2013-04-29 17:29:00,
2013-04-29 13:34:00,64.0,53.6,29.94,West,276,0.0,2.0,69,0.00,,,0.00,VWS V14.01,2013-04-29 17:34:00,
2013-04-29 13:39:00,64.2,52.6,29.94,West,272,4.0,4.0,66,0.00,,,0.00,VWS V14.01,2013-04-29 17:39:00,
2013-04-29 13:45:00,64.3,52.3,29.94,NW,319,5.0,5.0,65,0.00,,,0.00,VWS V14.01,2013-04-29 17:45:00,
2013-04-29 13:50:00,64.3,52.3,29.94,WSW,257,3.0,3.0,65,0.00,,,0.00,VWS V14.01,2013-04-29 17:50:00,
2013-04-29 13:55:00,64.2,52.2,29.94,WNW,292,7.0,7.0,65,0.00,,,0.00,VWS V14.01,2013-04-29 17:55:00,
2013-04-29 14:00:00,64.8,52.3,29.93,WNW,302,1.0,2.0,64,0.00,,,0.00,VWS V14.01,2013-04-29 18:00:00,
2013-04-29 14:05:00,65.6,53.5,29.93,West,269,2.0,2.0,65,0.00,,,0.00,VWS V14.01,2013-04-29 18:05:00,
2013-04-29 14:10:00,65.6,53.1,29.93,SW,236,3.0,3.0,64,0.00,,,0.00,VWS V14.01,2013-04-29 18:10:00,
2013-04-29 14:15:00,65.5,53.4,29.92,SW,226,2.0,2.0,65,0.00,,,0.00,VWS V14.01,2013-04-29 18:15:00,
2013-04-29 14:20:00,66.0,53.1,29.92,North,355,0.0,2.0,63,0.00,,,0.00,VWS V14.01,2013-04-29 18:20:00,
2013-04-29 14:25:00,66.9,53.5,29.92,West,267,3.0,3.0,62,0.00,,,0.00,VWS V14.01,2013-04-29 18:25:00,
2013-04-29 14:30:00,66.8,53.8,29.92,West,276,1.0,2.0,63,0.00,,,0.00,VWS V14.01,2013-04-29 18:30:00,
2013-04-29 14:35:00,66.4,53.4,29.92,NW,309,0.0,2.0,63,0.00,,,0.00,VWS V14.01,2013-04-29 18:35:00,
2013-04-29 14:40:00,66.8,52.5,29.92,NNW,342,1.0,2.0,60,0.00,,,0.00,VWS V14.01,2013-04-29 18:40:00,
2013-04-29 14:45:00,67.4,53.5,29.92,WSW,242,4.0,4.0,61,0.00,,,0.00,VWS V14.01,2013-04-29 18:45:00,
2013-04-29 14:50:00,67.1,51.8,29.92,West,278,1.0,2.0,58,0.00,,,0.00,VWS V14.01,2013-04-29 18:50:00,
2013-04-29 14:56:00,67.1,52.8,29.92,NW,304,2.0,2.0,60,0.00,,,0.00,VWS V14.01,2013-04-29 18:56:00,
2013-04-29 15:01:00,67.3,52.5,29.91,NNW,344,4.0,4.0,59,0.00,,,0.00,VWS V14.01,2013-04-29 19:01:00,
2013-04-29 15:06:00,66.9,52.6,29.91,North,355,2.0,2.0,60,0.00,,,0.00,VWS V14.01,2013-04-29 19:06:00,
2013-04-29 15:11:00,67.4,52.6,29.91,NW,317,2.0,2.0,59,0.00,,,0.00,VWS V14.01,2013-04-29 19:11:00,
2013-04-29 15:16:00,67.8,53.4,29.91,WSW,249,2.0,2.0,60,0.00,,,0.00,VWS V14.01,2013-04-29 19:16:00,
2013-04-29 15:21:00,67.6,52.8,29.91,WSW,249,0.0,2.0,59,0.00,,,0.00,VWS V14.01,2013-04-29 19:21:00,
2013-04-29 15:26:00,67.8,52.5,29.91,WNW,290,1.0,2.0,58,0.00,,,0.00,VWS V14.01,2013-04-29 19:26:00,
2013-04-29 15:31:00,68.6,52.8,29.90,WNW,288,3.0,3.0,57,0.00,,,0.00,VWS V14.01,2013-04-29 19:31:00,
2013-04-29 15:36:00,69.6,53.2,29.90,NW,319,0.0,2.0,56,0.00,,,0.00,VWS V14.01,2013-04-29 19:36:00,
2013-04-29 15:41:00,70.1,52.7,29.90,WNW,284,5.0,5.0,54,0.00,,,0.00,VWS V14.01,2013-04-29 19:41:00,
2013-04-29 15:47:00,68.8,51.5,29.89,ESE,108,0.0,2.0,54,0.00,,,0.00,VWS V14.01,2013-04-29 19:47:00,
2013-04-29 15:52:00,67.6,51.8,29.89,NNW,344,2.0,2.0,57,0.00,,,0.00,VWS V14.01,2013-04-29 19:52:00,
2013-04-29 15:57:00,67.8,51.5,29.89,West,277,4.0,4.0,56,0.00,,,0.00,VWS V14.01,2013-04-29 19:57:00,
2013-04-29 16:02:00,67.9,51.2,29.89,NW,315,0.0,2.0,55,0.00,,,0.00,VWS V14.01,2013-04-29 20:02:00,
2013-04-29 16:07:00,68.3,51.5,29.89,West,277,3.0,3.0,55,0.00,,,0.00,VWS V14.01,2013-04-29 20:07:00,
2013-04-29 16:12:00,67.9,51.2,29.89,NNE,32,0.0,2.0,55,0.00,,,0.00,VWS V14.01,2013-04-29 20:12:00,
2013-04-29 16:17:00,68.1,50.3,29.88,West,263,0.0,2.0,53,0.00,,,0.00,VWS V14.01,2013-04-29 20:17:00,
2013-04-29 16:22:00,68.4,51.1,29.88,WNW,294,2.0,2.0,54,0.00,,,0.00,VWS V14.01,2013-04-29 20:22:00,
2013-04-29 16:27:00,68.3,51.0,29.88,SW,234,2.0,2.0,54,0.00,,,0.00,VWS V14.01,2013-04-29 20:27:00,
2013-04-29 16:32:00,67.8,51.1,29.88,SSE,161,1.0,2.0,55,0.00,,,0.00,VWS V14.01,2013-04-29 20:32:00,
2013-04-29 16:37:00,68.1,51.3,29.88,NNW,346,4.0,4.0,55,0.00,,,0.00,VWS V14.01,2013-04-29 20:37:00,
2013-04-29 16:42:00,67.3,51.6,29.88,North,355,2.0,2.0,57,0.00,,,0.00,VWS V14.01,2013-04-29 20:42:00,
2013-04-29 16:47:00,67.4,51.7,29.87,North,355,2.0,2.0,57,0.00,,,0.00,VWS V14.01,2013-04-29 20:47:00,
2013-04-29 16:52:00,67.3,52.0,29.87,NNW,336,2.0,2.0,58,0.00,,,0.00,VWS V14.01,2013-04-29 20:52:00,
2013-04-29 16:58:00,67.8,51.5,29.87,NW,304,3.0,3.0,56,0.00,,,0.00,VWS V14.01,2013-04-29 20:58:00,
2013-04-29 17:03:00,68.6,53.2,29.87,WSW,246,2.0,2.0,58,0.00,,,0.00,VWS V14.01,2013-04-29 21:03:00,
2013-04-29 17:08:00,69.3,51.5,29.87,WNW,297,2.0,2.0,53,0.00,,,0.00,VWS V14.01,2013-04-29 21:08:00,
2013-04-29 17:13:00,69.9,52.5,29.87,North,360,2.0,2.0,54,0.00,,,0.00,VWS V14.01,2013-04-29 21:13:00,
2013-04-29 17:18:00,68.9,52.6,29.87,North,5,0.0,2.0,56,0.00,,,0.00,VWS V14.01,2013-04-29 21:18:00,
2013-04-29 17:23:00,68.6,53.2,29.87,NNW,344,3.0,3.0,58,0.00,,,0.00,VWS V14.01,2013-04-29 21:23:00,
2013-04-29 17:28:00,67.6,53.2,29.87,NNW,347,0.0,2.0,60,0.00,,,0.00,VWS V14.01,2013-04-29 21:28:00,
2013-04-29 17:33:00,66.9,52.6,29.88,NNW,331,2.0,2.0,60,0.00,,,0.00,VWS V14.01,2013-04-29 21:33:00,
2013-04-29 17:38:00,66.9,52.6,29.88,NNW,331,1.0,2.0,60,0.00,,,0.00,VWS V14.01,2013-04-29 21:38:00,
2013-04-29 17:43:00,66.9,52.1,29.88,WSW,254,0.0,2.0,59,0.00,,,0.00,VWS V14.01,2013-04-29 21:43:00,
2013-04-29 17:48:00,67.6,53.2,29.88,NW,320,4.0,4.0,60,0.00,,,0.00,VWS V14.01,2013-04-29 21:48:00,
2013-04-29 17:53:00,67.9,52.6,29.88,NW,304,1.0,2.0,58,0.00,,,0.00,VWS V14.01,2013-04-29 21:53:00,
2013-04-29 17:58:00,67.8,52.5,29.88,NW,317,1.0,2.0,58,0.00,,,0.00,VWS V14.01,2013-04-29 21:58:00,
2013-04-29 18:03:00,67.4,52.6,29.88,NW,317,1.0,2.0,59,0.00,,,0.00,VWS V14.01,2013-04-29 22:03:00,
2013-04-29 18:08:00,67.4,52.6,29.88,NW,314,1.0,2.0,59,0.00,,,0.00,VWS V14.01,2013-04-29 22:08:00,
2013-04-29 18:13:00,67.9,52.1,29.88,NNW,332,3.0,3.0,57,0.00,,,0.00,VWS V14.01,2013-04-29 22:13:00,
2013-04-29 18:18:00,67.8,52.0,29.88,NNW,346,2.0,2.0,57,0.00,,,0.00,VWS V14.01,2013-04-29 22:18:00,
2013-04-29 18:23:00,67.4,52.6,29.88,NNW,346,2.0,2.0,59,0.00,,,0.00,VWS V14.01,2013-04-29 22:23:00,
2013-04-29 18:28:00,67.1,51.8,29.88,North,349,1.0,2.0,58,0.00,,,0.00,VWS V14.01,2013-04-29 22:28:00,
2013-04-29 18:33:00,66.9,52.1,29.88,North,349,0.0,2.0,59,0.00,,,0.00,VWS V14.01,2013-04-29 22:33:00,
2013-04-29 18:39:00,66.8,52.0,29.88,North,349,0.0,2.0,59,0.00,,,0.00,VWS V14.01,2013-04-29 22:39:00,
2013-04-29 18:44:00,66.8,52.0,29.88,NW,323,1.0,2.0,59,0.00,,,0.00,VWS V14.01,2013-04-29 22:44:00,
2013-04-29 18:49:00,66.4,51.7,29.88,NNW,346,1.0,2.0,59,0.00,,,0.00,VWS V14.01,2013-04-29 22:49:00,
2013-04-29 18:54:00,66.1,51.4,29.88,North,360,4.0,4.0,59,0.00,,,0.00,VWS V14.01,2013-04-29 22:54:00,
2013-04-29 18:59:00,66.0,51.7,29.88,North,355,1.0,2.0,60,0.00,,,0.00,VWS V14.01,2013-04-29 22:59:00,
2013-04-29 19:04:00,65.8,51.5,29.88,North,355,1.0,2.0,60,0.00,,,0.00,VWS V14.01,2013-04-29 23:04:00,
2013-04-29 19:09:00,65.8,52.0,29.88,North,355,2.0,2.0,61,0.00,,,0.00,VWS V14.01,2013-04-29 23:09:00,
2013-04-29 19:14:00,65.8,53.7,29.88,North,355,1.0,2.0,65,0.00,,,0.00,VWS V14.01,2013-04-29 23:14:00,
2013-04-29 19:19:00,65.6,53.1,29.88,North,355,0.0,2.0,64,0.00,,,0.00,VWS V14.01,2013-04-29 23:19:00,
2013-04-29 19:24:00,65.5,53.0,29.88,North,355,0.0,2.0,64,0.00,,,0.00,VWS V14.01,2013-04-29 23:24:00,
2013-04-29 19:29:00,65.3,54.1,29.88,North,355,0.0,2.0,67,0.00,,,0.00,VWS V14.01,2013-04-29 23:29:00,
2013-04-29 19:34:00,65.0,53.4,29.88,North,355,0.0,2.0,66,0.00,,,0.00,VWS V14.01,2013-04-29 23:34:00,
2013-04-29 19:39:00,64.8,52.8,29.88,North,355,0.0,2.0,65,0.00,,,0.00,VWS V14.01,2013-04-29 23:39:00,
2013-04-29 19:44:00,64.3,53.9,29.88,North,355,0.0,2.0,69,0.00,,,0.00,VWS V14.01,2013-04-29 23:44:00,
2013-04-29 19:49:00,63.9,53.9,29.88,North,355,0.0,2.0,70,0.00,,,0.00,VWS V14.01,2013-04-29 23:49:00,
2013-04-29 19:54:00,63.2,53.7,29.88,North,355,0.0,2.0,71,0.00,,,0.00,VWS V14.01,2013-04-29 23:54:00,
2013-04-29 19:59:00,62.4,54.0,29.89,North,355,0.0,2.0,74,0.00,,,0.00,VWS V14.01,2013-04-29 23:59:00,
2013-04-29 20:04:00,61.6,54.3,29.89,North,355,0.0,2.0,77,0.00,,,0.00,VWS V14.01,2013-04-30 00:04:00,
2013-04-29 20:09:00,61.2,54.3,29.89,North,355,0.0,2.0,78,0.00,,,0.00,VWS V14.01,2013-04-30 00:09:00,
2013-04-29 20:14:00,60.7,54.2,29.89,North,355,0.0,2.0,79,0.00,,,0.00,VWS V14.01,2013-04-30 00:14:00,
2013-04-29 20:19:00,60.2,54.4,29.89,North,355,0.0,2.0,81,0.00,,,0.00,VWS V14.01,2013-04-30 00:19:00,
2013-04-29 20:24:00,59.9,54.1,29.89,North,355,0.0,2.0,81,0.00,,,0.00,VWS V14.01,2013-04-30 00:24:00,
2013-04-29 20:30:00,59.6,54.1,29.90,North,355,0.0,2.0,82,0.00,,,0.00,VWS V14.01,2013-04-30 00:30:00,
2013-04-29 20:35:00,59.5,54.0,29.90,North,355,0.0,2.0,82,0.00,,,0.00,VWS V14.01,2013-04-30 00:35:00,
2013-04-29 20:40:00,59.0,53.5,29.90,North,355,0.0,2.0,82,0.00,,,0.00,VWS V14.01,2013-04-30 00:40:00,
2013-04-29 20:45:00,58.4,52.9,29.90,North,355,0.0,2.0,82,0.00,,,0.00,VWS V14.01,2013-04-30 00:45:00,
2013-04-29 20:50:00,58.3,53.2,29.90,North,355,0.0,2.0,83,0.00,,,0.00,VWS V14.01,2013-04-30 00:50:00,
2013-04-29 20:55:00,58.0,53.2,29.90,North,355,0.0,2.0,84,0.00,,,0.00,VWS V14.01,2013-04-30 00:55:00,
2013-04-29 21:00:00,57.5,52.7,29.91,North,355,0.0,2.0,84,0.00,,,0.00,VWS V14.01,2013-04-30 01:00:00,
2013-04-29 21:05:00,57.2,52.7,29.91,North,355,0.0,2.0,85,0.00,,,0.00,VWS V14.01,2013-04-30 01:05:00,
2013-04-29 21:10:00,56.7,52.2,29.91,North,355,0.0,2.0,85,0.00,,,0.00,VWS V14.01,2013-04-30 01:10:00,
2013-04-29 21:15:00,56.3,52.2,29.91,North,355,0.0,2.0,86,0.00,,,0.00,VWS V14.01,2013-04-30 01:15:00,
2013-04-29 21:20:00,56.2,52.4,29.91,North,355,0.0,2.0,87,0.00,,,0.00,VWS V14.01,2013-04-30 01:20:00,
2013-04-29 21:25:00,55.9,52.4,29.91,North,355,0.0,2.0,88,0.00,,,0.00,VWS V14.01,2013-04-30 01:25:00,
2013-04-29 21:30:00,55.7,52.2,29.91,North,355,0.0,2.0,88,0.00,,,0.00,VWS V14.01,2013-04-30 01:30:00,
2013-04-29 21:35:00,55.3,51.8,29.91,North,355,0.0,2.0,88,0.00,,,0.00,VWS V14.01,2013-04-30 01:35:00,
2013-04-29 21:40:00,55.0,51.8,29.91,North,355,0.0,2.0,89,0.00,,,0.00,VWS V14.01,2013-04-30 01:40:00,
2013-04-29 21:45:00,54.8,51.6,29.92,North,355,0.0,2.0,89,0.00,,,0.00,VWS V14.01,2013-04-30 01:45:00,
2013-04-29 21:50:00,54.7,51.5,29.92,North,355,0.0,2.0,89,0.00,,,0.00,VWS V14.01,2013-04-30 01:50:00,
2013-04-29 21:55:00,54.5,51.6,29.92,North,355,0.0,2.0,90,0.00,,,0.00,VWS V14.01,2013-04-30 01:55:00,
2013-04-29 22:00:00,54.4,51.5,29.92,North,355,0.0,2.0,90,0.00,,,0.00,VWS V14.01,2013-04-30 02:00:00,
2013-04-29 22:05:00,54.2,51.6,29.92,North,355,0.0,2.0,91,0.00,,,0.00,VWS V14.01,2013-04-30 02:05:00,
2013-04-29 22:10:00,54.2,51.6,29.92,North,355,0.0,2.0,91,0.00,,,0.00,VWS V14.01,2013-04-30 02:10:00,
2013-04-29 22:15:00,54.2,51.6,29.93,North,355,0.0,2.0,91,0.00,,,0.00,VWS V14.01,2013-04-30 02:15:00,
2013-04-29 22:21:00,54.1,51.5,29.93,North,355,0.0,2.0,91,0.00,,,0.00,VWS V14.01,2013-04-30 02:21:00,
2013-04-29 22:26:00,54.1,51.5,29.93,North,355,0.0,2.0,91,0.00,,,0.00,VWS V14.01,2013-04-30 02:26:00,
2013-04-29 22:31:00,53.9,51.6,29.93,North,355,0.0,2.0,92,0.00,,,0.00,VWS V14.01,2013-04-30 02:31:00,
2013-04-29 22:36:00,53.9,51.6,29.93,North,355,0.0,2.0,92,0.00,,,0.00,VWS V14.01,2013-04-30 02:36:00,
2013-04-29 22:41:00,53.8,51.5,29.93,North,355,0.0,2.0,92,0.00,,,0.00,VWS V14.01,2013-04-30 02:41:00,
2013-04-29 22:46:00,53.6,51.3,29.93,North,355,0.0,2.0,92,0.00,,,0.00,VWS V14.01,2013-04-30 02:46:00,
2013-04-29 22:51:00,53.6,51.3,29.93,North,355,0.0,2.0,92,0.00,,,0.00,VWS V14.01,2013-04-30 02:51:00,
2013-04-29 22:56:00,53.5,51.2,29.93,North,355,0.0,2.0,92,0.00,,,0.00,VWS V14.01,2013-04-30 02:56:00,
2013-04-29 23:01:00,53.5,51.2,29.93,North,355,0.0,2.0,92,0.00,,,0.00,VWS V14.01,2013-04-30 03:01:00,
2013-04-29 23:06:00,53.3,51.0,29.93,North,355,0.0,2.0,92,0.00,,,0.00,VWS V14.01,2013-04-30 03:06:00,
2013-04-29 23:11:00,53.3,51.0,29.93,North,355,0.0,2.0,92,0.00,,,0.00,VWS V14.01,2013-04-30 03:11:00,
2013-04-29 23:16:00,53.2,50.9,29.93,North,355,0.0,2.0,92,0.00,,,0.00,VWS V14.01,2013-04-30 03:16:00,
2013-04-29 23:21:00,53.2,50.9,29.93,North,355,0.0,2.0,92,0.00,,,0.00,VWS V14.01,2013-04-30 03:21:00,
2013-04-29 23:26:00,53.2,51.2,29.93,North,355,0.0,2.0,93,0.00,,,0.00,VWS V14.01,2013-04-30 03:26:00,
2013-04-29 23:31:00,53.2,51.2,29.92,North,355,0.0,2.0,93,0.00,,,0.00,VWS V14.01,2013-04-30 03:31:00,
2013-04-29 23:36:00,53.2,51.2,29.92,North,355,0.0,2.0,93,0.00,,,0.00,VWS V14.01,2013-04-30 03:36:00,
2013-04-29 23:41:00,53.2,51.2,29.92,North,355,0.0,2.0,93,0.00,,,0.00,VWS V14.01,2013-04-30 03:41:00,
2013-04-29 23:46:00,53.2,51.2,29.92,North,355,0.0,2.0,93,0.00,,,0.00,VWS V14.01,2013-04-30 03:46:00,
2013-04-29 23:52:00,53.2,51.2,29.92,North,355,0.0,2.0,93,0.00,,,0.00,VWS V14.01,2013-04-30 03:52:00,
2013-04-29 23:57:00,53.2,51.2,29.92,North,355,0.0,2.0,93,0.00,,,0.00,VWS V14.01,2013-04-30 03:57:00,